GSAT0215 (GALILEO 19) (43055 NORAD) Tracking and Keplerian Element Data

This shows tracking and keplerian element data for the satellite.

Feedback or suggestion? Click here.




ElementValue
Catalog43055
NameGSAT0215 (GALILEO 19)
Epoch Orbit571
Epoch Day317.23017067
Epoch Year2018
RAAN297.7373
Inclination56.7363
Eccentricity0.0003784
Argument of Perigee254.0858
Mean Anonmoly105.8597
Mean Motion1.70473692
Decay Rate-3E-07
L11 43055U 17079A 18317.23017067 -.00000030 00000-0 00000-0 0 9991
L22 43055 56.7363 297.7373 0003784 254.0858 105.8597 1.70473692 5718

Live tracking and technical data element details for GSAT0215 (GALILEO 19) (NORAD 43055). GSAT0215 (GALILEO 19) can be tracked NOW for your location showing map with azimuth and elevation plus other details from your city location.

Track the satellite on the map from your city or location and see movement details for azimuth, elevation, latitude, longitude, range, height, and movement on the map or in text.







IsCatalogInMostPopularTable: catalog: 43055, numindb: 164
Update: records affected: 1



GetName: 43055 GSAT0215 (GALILEO 19)

Hit Count: updated at: Fri, 16 Nov 2018 11:35:44 GMT